Regional Weather Roundup
Issued by NWS

Home | Current Version | Previous Version | Text Only | Print | Product List | Glossary On
Versions: 1 2 3 4 5 6 7 8 9 10 11 12 13 14 15 16 17 18 19 20 21 22 23 24 25 26 27 28 29 30 31 32 33 34 35 36 37 38 39 40 41 42 43 44 45 46 47 48 49 50
000
ASUS43 KMPX 190401
RWRMN
WEATHER ROUNDUP FOR MINNESOTA
NATIONAL WEATHER SERVICE TWIN CITIES/CHANHASSEN MN
1100 PM CDT FRI AUG 18 2017


NOTE: "FAIR" INDICATES FEW OR NO CLOUDS BELOW 12,000 FEET WITH NO
SIGNIFICANT WEATHER AND/OR OBSTRUCTIONS TO VISIBILITY. N/A MEANS
CURRENT SKY AND/OR WEATHER CONDITIONS ARE NOT AVAILABLE.

MNZ060>063-068>070-190500-
   Twin Cities Metro

CITY           SKY/WX    TMP DP  RH WIND       PRES   REMARKS
TWIN CITIES    MOCLDY    67  60  78 S3        29.92S
ST PAUL        FAIR      63  62  97 CALM      29.92S
CRYSTAL        FAIR      63  58  83 CALM      29.90F
LAKEVILLE      FAIR      57  57 100 CALM      29.93S FOG
EDEN PRAIRIE   FAIR      64  60  87 CALM      29.91S
SOUTH ST PAUL  FAIR      63  61  93 CALM      29.92S
LAKE ELMO      FAIR      59  59 100 CALM      29.93S FOG
$$
MNZ001>005-007-008-013>017-022>024-027-028-190500-
   Northwest Minnesota

CITY           SKY/WX    TMP DP  RH WIND       PRES   REMARKS
BEMIDJI        FAIR      61  56  85 W7        29.89R
HALLOCK        FAIR      61  55  82 S3        29.83S
ROSEAU         FAIR      57  54  88 CALM      29.84S
WARROAD        FAIR      59  55  88 CALM      29.84S
CROOKSTON      FAIR      57  55  94 S5        29.87S
FOSSTON        FAIR      55  54  94 S6        29.90S
DETROIT LAKES  FAIR      63  57  82 CALM      29.92S
MOORHEAD       FAIR      63  57  82 S5        29.90S
PARK RAPIDS    FOG       59  57  93 CALM      29.90S VSB 1/2
MAHNOMEN       FAIR      58  56  94 S7        29.89S
$$
MNZ006-009>011-018-025>026-190500-
   North Central Minnesota

CITY           SKY/WX    TMP DP  RH WIND       PRES   REMARKS
BAUDETTE       FAIR      59  56  89 SW3       29.83S
FLAG ISLAND    FAIR      70  55  60 CALM      29.81S
INTL FALLS     FAIR      59  56  89 SW3       29.83R
WASKISH        FAIR      64  61  88 SW5       29.85S
BIG FORK       FAIR      57  55  94 CALM      29.86S FOG
LONGVILLE        N/A     54  54 100 CALM      29.89S FOG
GRAND RAPIDS   FAIR      62  57  83 CALM      29.90R
CRANE LAKE     FAIR      55  55 100 CALM      29.85S
ORR            FAIR      57  55  94 CALM      29.83S FOG
COOK           FAIR      59  57  94 SW5       29.86S
WALKER         FAIR      59  56  89 W6        29.89S
$$
MNZ012-019>021-037-190500-
   Northeast Minnesota

CITY           SKY/WX    TMP DP  RH WIND       PRES   REMARKS
DULUTH         FAIR      60  59  96 W7        29.88R
ELY            FAIR      59  57  94 SW3       29.85S
HIBBING        FAIR      53  53 100 CALM      29.87R FOG
EVELETH        FAIR      59  55  85 W3        29.88S
DULUTH HARBOR  FAIR      64  61  88 SW12      29.86S
TWO HARBORS    MOCLDY    66  61  82 NW3       29.83S
SILVER BAY     CLOUDY    64  61  88 NW3       29.82S
GRAND MARAIS     N/A     60  59  96 CALM      29.79F
$$
MNZ029>031-032-039>041-046>048-054>057-064-190500-
   West Central Minnesota

CITY           SKY/WX    TMP DP  RH WIND       PRES   REMARKS
FERGUS FALLS   FAIR      61  61 100 CALM      29.92R
WHEATON        FAIR      61  57  88 SW5       29.94S
MORRIS         FAIR      63  61  94 W3        29.93S
ALEXANDRIA     FAIR      59  58  96 CALM      29.95R FOG
ELBOW LAKE     FAIR      59  58  98 SW5       29.93S
WADENA         FAIR      57  57 100 SW3       29.91S
GLENWOOD       FAIR      59  57  94 SW5       29.95R
APPLETON       FAIR      61  57  88 CALM      29.93S FOG
BENSON         FAIR      59  57  94 CALM      29.95R
ORTONVILLE     FAIR      63  61  94 MISG      29.94S
MADISON        FAIR      63  63 100 CALM      29.94R FOG
WILLMAR        FAIR      63  61  94 CALM      29.95R
$$
MNZ033>034-036-042>043-049>051-058-059-190500-
   Central Minnesota

CITY           SKY/WX    TMP DP  RH WIND       PRES   REMARKS
ST CLOUD       FAIR      59  58  96 SW3       29.92R
SAUK CENTRE    FAIR      58  57  97 CALM      29.94R
PAYNESVILLE    FAIR      58  58 100 CALM      29.94S FOG
AITKIN         FAIR      54  52  94 CALM      29.89S FOG
PINE RIVER     FAIR      54  54 100 CALM      29.94R
BRAINERD       FAIR      59  57  93 S6        29.91S
STAPLES        FAIR      57  57 100 CALM      29.91S
LONG PRAIRIE   FAIR      55  55 100 CALM      29.93S FOG
LITTLE FALLS   FAIR      55  54  94 CALM      29.92F FOG
LITCHFIELD     FAIR      63  63 100 CALM      29.94R
BUFFALO        FAIR      62  59  90 CALM      29.93S
MAPLE LAKE     FOG       61  60  97 CALM      29.93S VSB 1
HUTCHINSON     FAIR      60  60  99 CALM      29.94S FOG
$$
MNZ037-044-045-052-053-190500-
   East Central Minnesota

CITY           SKY/WX    TMP DP  RH WIND       PRES   REMARKS
PRINCETON      FAIR      61  57  88 CALM      29.92S
MORA           FAIR      59  57  94 CALM      29.92
CAMBRIDGE      FOG       63  61  94 CALM      29.92R VSB 1
RUSH CITY      MOCLDY    59  58  94 CALM      29.91R FOG
MOOSE LAKE       N/A     54  52  94 CALM      29.88S FOG
HINCKLEY       FAIR      57  57 100 CALM      29.91S
CLOQUET        FAIR      61  55  82 SW8       29.89R
MCGREGOR       FAIR      55  54  94 CALM      29.90S
$$
MNZ071>073-080-081-089-090-097-098-190500-
   Southwest Minnesota

CITY           SKY/WX    TMP DP  RH WIND       PRES   REMARKS
MONTEVIDEO     FAIR      59  57  94 CALM      29.94R
GRANITE FALLS  FOG       58  58  99 CALM      29.95R VSB 1
CANBY          FAIR      61  60  97 CALM      29.96R
MARSHALL       FAIR      60  59  96 CALM      29.94S
REDWOOD FALLS  FAIR      59  57  93 W5        29.92S
OLIVIA         FAIR      57  55  94 CALM      29.92S
PIPESTONE      CLOUDY    64  61  88 W5        29.96R
WINDOM         FAIR      57  55  94 SW3       29.94R FOG
WORTHINGTON    FAIR      59  58  96 NE6       29.95R
JACKSON        FAIR      57  57 100 CALM      29.86F
TRACY          FAIR      58  58 100 CALM      29.95R
SLAYTON        FAIR      59  55  85 CALM      29.95R
$$
MNZ065>067-074>077-082>085-091>093-190500-
   South Central Minnesota

CITY           SKY/WX    TMP DP  RH WIND       PRES   REMARKS
MANKATO        FAIR      62  59  90 SW5       29.94R
NEW ULM        FAIR      61  57  88 CALM      29.93R
ST JAMES       FAIR      61  59  94 CALM      29.94R
FAIRMONT       LGT RAIN  60  59  96 N7        29.95R
GLENCOE        FAIR      63  63  99 CALM      29.92S
FARIBAULT      FAIR      61  59  94 CALM      29.93F
OWATONNA       FAIR      61  59  94 CALM      29.94S
WASECA         FAIR      63  59  88 SE3       29.94S
ALBERT LEA     FAIR      66  64  94 CALM      29.94F
$$
MNZ078>079-086>088-094>096-190500-
   Southeast Minnesota

CITY           SKY/WX    TMP DP  RH WIND       PRES   REMARKS
ROCHESTER      FAIR      61  57  87 CALM      29.96R
RED WING       FAIR      61  59  94 CALM      29.92S
STANTON        FAIR      60  59  94 CALM      29.93R FOG
DODGE CENTER   FAIR      57  55  94 CALM      29.95R
WINONA         FAIR      61  59  94 CALM      29.93F
AUSTIN         FAIR      59  57  94 CALM      29.94S
PRESTON        FAIR      60  54  82 CALM      29.95S
$$
ABBREVIATIONS USED IN REMARKS
   TC - TEMPERATURES IN CELSIUS
  WCI - WIND CHILL INDEX
   HX - HEAT INDEX
  VSB - VISIBILITY
$$



USA.gov is the U.S. government's official web portal to all federal, state and local government web resources and services.